Regional Weather Roundup
Issued by NWS Charleston, SC

Current Version | Previous Version | Graphics & Text | Print | Product List | Glossary On
Versions: 1 2 3 4 5 6 7 8 9 10 11 12 13 14 15 16 17 18 19 20 21 22 23 24 25 26 27 28 29 30 31 32 33 34 35 36 37 38 39 40 41 42 43 44 45 46 47 48 49 50
647
ASUS42 KCHS 300428
RWRCHS

REGIONAL WEATHER ROUNDUP
NATIONAL WEATHER SERVICE CHARLESTON SC
1200 AM EDT SAT APR 30 2016

NOTE: "FAIR" INDICATES FEW OR NO CLOUDS BELOW 12,000 FEET WITH NO
SIGNIFICANT WEATHER AND/OR OBSTRUCTIONS TO VISIBILITY.

NOT ALL STATIONS ARE QUALITY CONTROLLED. USE DATA WITH CAUTION...
ESPECIALLY DEWPOINT OBSERVATIONS.

SCZ027-030-031-034>040-042>050-300500-
...SOUTHEAST SOUTH CAROLINA...

CITY           SKY/WX    TMP DP  RH WIND       PRES   REMARKS
N CHARLESTON   PTCLDY    70  67  90 S7        29.98F
WATERFRONT PRK   N/A     71  70  96 SE7       29.97F
MOUNT PLEASANT FAIR      66  66 100 CALM      29.99S FOG
JOHNS ISLAND   FAIR      70  70 100 SE5       29.99S FOG
PINOPOLIS        N/A     72  68  88 CALM      29.91F
MONCKS CORNER  FAIR      64  63  94 CALM      29.99R FOG
SUMMERVILLE    MOCLDY    68  68 100 CALM      29.99F FOG
BEAUFORT MCAS  CLOUDY    73  70  90 SE3       29.98S
BEAUFORT ARPT  MOCLDY    72  70  94 SE3       29.98S FOG
HILTON HEAD IS CLEAR     72  72 100 SE3       29.99S FOG
WALTERBORO     PTCLDY    70  70 100 E5        29.99S
ALLENDALE      FAIR      70  66  88 SE5       29.97S

...SOUTHERN MIDLANDS AND PEE DEE...

CITY           SKY/WX    TMP DP  RH WIND       PRES   REMARKS
GEORGETOWN     FAIR      64  64 100 SE3       30.01R
KINGSTREE      FAIR      68  63  83 CALM      29.99R
ORANGEBURG     PTCLDY    71  62  73 S6        29.98F
BARNWELL       FAIR      73  68  83 SE5       29.98S
AIKEN          FAIR      68  57  68 S7        30.02R
MANNING        NOT AVBL
COLUMBIA       CLOUDY    75  61  61 CALM      29.97R
SUMTER         CLOUDY    72  64  75 S5        29.96S
FLORENCE       CLOUDY    69  65  86 S6        29.99R
MYRTLE BEACH   CLOUDY    70  61  73 SE8       30.02S
N MYRTLE BEACH PTCLDY    68  64  87 S6        30.00S

$$

GAZ063-065-086>088-099>101-113>116-118-119-134>141-150-300500-
...SOUTHEAST GEORGIA...

CITY           SKY/WX    TMP DP  RH WIND       PRES   REMARKS
SAVANNAH ARPT  CLEAR     72  66  81 S3        29.97F
HUNTER AAF     CLEAR     72  72 100 SE5       29.95F
FORT STEWART   CLEAR     69  64  83 CALM      29.95F
STATESBORO     CLOUDY    71  64  79 CALM      29.97S
SYLVANIA       PTCLDY    70  64  80 CALM      29.99R
CLAXTON        FAIR      68  64  87 CALM      29.97S

...CSRA...CENTRAL AND FAR SOUTHEAST GEORGIA...

CITY           SKY/WX    TMP DP  RH WIND       PRES   REMARKS
THOMSON        PTCLDY    66  66  99 CALM      30.03R
AUGUSTA-BUSH   CLEAR     67  64  90 CALM      29.96R
AUGUSTA-DANIEL CLEAR     78  58  49 SE8       29.98R
SWAINSBORO     FAIR      70  63  78 CALM      29.98S
VIDALIA        CLOUDY    72  63  73 SE5       29.97S
EASTMAN        FAIR     N/A N/A N/A CALM      29.98S HAZE
HAZLEHURST     FAIR      74  65  73 SE6       29.95F
ALMA           CLEAR     72  65  78 CALM      29.96S
WAYCROSS       CLEAR     74  68  82 S3        29.97R
JESUP          FAIR      70  66  88 CALM      29.97S
BAXLEY         FAIR      73  64  73 SE3       29.96S
BRUNSWICK      CLEAR     77  73  88 S6        29.98S
SAINT SIMONS   CLEAR     73  73 100 SE8       29.97F

$$

SCZ027-028-034-036>038-045-046-048>050-GAZ119-141-300500-
...LAKE AND SUPPLEMENTAL COASTAL OBSERVATIONS...

STATION/POSITION TIME  TEMP    WIND        PRES    WAVE   SWELL
                       AIR SEA DIR/SP/G            HT/PER HT/PER/DIR
                 (UTC) (F)     (DEG/KT/KT) (MB)    (FT/S) (FT/S/D)
WINYAH BAY       0300   70     140/  4     1015.0S
LAKE MURRAY      0300   74        CALM     1014.2S
ACE BASIN NERRS  0300   70        CALM     1016.0S
FORT PULASKI     0400   72 72  120/  4/  5 1015.2
SAPELO ISLAND    0400   73     150/  3     1015.0S

$$

ANZ835-935-AMZ111-154-330-350-352-354-370-450-454-472-300500-
...C-MAN AND BUOY OBSERVATIONS...

STATION/POSITION TIME  TEMP    WIND        PRES    WAVE   SWELL
                       AIR SEA DIR/SP/G            HT/PER HT/PER/DIR
                 (UTC) (F)     (DEG/KT/KT) (MB)    (FT/S) (FT/S/D)
BUOY 41004       0350   74 72  130/  8/  8 1015.1F   2/ 9   2/ 9
BUOY 41008       NOT AVBL
FOLLY BEACH CMAN 0400   71     130/  5/  6 1015.7F
CAPERS NEARSHORE 0408   70 70  140/  4/  6 1015.3F
FRIPP NEARSHORE  0408   72 72  150/  6/ 10 1014.6F


STATION/POSITION TIME  TEMP    WIND        PRES    WAVE   SWELL
                       AIR SEA DIR/SP/G            HT/PER HT/PER/DIR
                 (UTC) (F)     (DEG/KT/KT) (MB)    (FT/S) (FT/S/D)
5E ST. MARYS GA  0321      74                N/A     2/11
FRYING PAN BUOY  0400   70 70  100/ 10/ 12 1015.5F
BUOY 41025       0350   57 75   20/ 14/ 16 1016.3F   4/ 8   3/ 50/ 8
CAPE LOOKOUT NC  0400   65      80/ 13/ 14 1015.6S
BUOY 41002       0350   71 71  300/  4/  4 1015.1F   3/ 6   3/270/ 6
BUOY 41010       0320   76 77  170/  6/  8 1015.7F
ST AUGUSTINE FL  0400   73 72  190/  7/  7 1016.0F


$$




USA.gov is the U.S. government's official web portal to all federal, state and local government web resources and services.